Bradford, PA

11:14 PM EDT on May 21, 2018 (GMT -0400)
Bradford Regional

Weather History for KBFD - November, 2012

Change the Weather History Date:

Tuesday, November 6, 2012

  Actual Average Record
Temperature  
Mean Temperature 32 °F 41 °F  
Max Temperature 37 °F 49 °F 67 °F (2005)
Min Temperature 24 °F 32 °F 15 °F (1967)
Degree Days  
Heating Degree Days 33 20  
Month to date heating degree days 115  
Since 1 July heating degree days 1108  
Cooling Degree Days 0 0  
Month to date cooling degree days 0  
Year to date cooling degree days 193  
Moisture  
Dew Point 19 °F    
Average Humidity 62    
Maximum Humidity 75    
Minimum Humidity 50    
Precipitation  
Precipitation 0.00 in 0.12 in 0.60 in (1968)
Month to date precipitation 0.70  
Year to date precipitation 38.00  
Sea Level Pressure  
Sea Level Pressure 30.10 in    
Wind  
Wind Speed 3 mph (SSE)    
Max Wind Speed 13 mph    
Max Gust Speed -    
Visibility 10 miles    
Events      
T = Trace of Precipitation, MM = Missing Value Source: NWS Daily Summary

Daily Weather History Graph

Daily Weather History Graph

Search for Another Location

Airport or City:

Astronomy

Nov. 06, 2012 Rise Set
Actual Time 6:53 AM EST 5:02 PM EST
Civil Twilight 6:24 AM EST 5:31 PM EST
Nautical Twilight 5:51 AM EST 6:04 PM EST
Astronomical Twilight 5:18 AM EST 6:37 PM EST
Moon 11:40 PM EST (11/6) 12:44 PM EST (11/6)
Length of Visible Light 11h 07m
Length of Day
10h 08m
Waning Gibbous, 53% of the Moon is Illuminated
Nov 6
Waning Gibbous
Nov 6
Last Quarter
Nov 13
New
Nov 20
First Quarter
Nov 28
Full

Hourly Weather History & Observations

Time (EST) Temp. Windchill Dew Point Humidity Pressure Visibility Wind Dir Wind Speed Gust Speed Precip Events Conditions
12:53 AM 28.9 °F - 17.1 °F 61% 30.16 in 10.0 mi Calm Calm - N/A   Overcast
1:53 AM 28.0 °F - 18.0 °F 66% 30.16 in 10.0 mi Calm Calm - N/A   Overcast
2:53 AM 28.0 °F 24.2 °F 18.0 °F 66% 30.16 in 10.0 mi SSE 3.5 mph - N/A   Overcast
3:53 AM 28.0 °F 24.2 °F 17.1 °F 63% 30.14 in 10.0 mi South 3.5 mph - N/A   Overcast
4:53 AM 27.0 °F 21.6 °F 17.1 °F 66% 30.15 in 10.0 mi South 4.6 mph - N/A   Overcast
5:53 AM 27.0 °F 21.6 °F 17.1 °F 66% 30.14 in 10.0 mi SSE 4.6 mph - N/A   Overcast
7:53 AM 28.0 °F 21.7 °F 17.1 °F 63% 30.16 in 10.0 mi SE 5.8 mph - N/A   Overcast
8:53 AM 28.9 °F 25.2 °F 17.1 °F 61% 30.16 in 10.0 mi Variable 3.5 mph - N/A   Overcast
9:53 AM 28.9 °F 21.1 °F 18.0 °F 64% 30.15 in 10.0 mi SSW 8.1 mph - N/A   Overcast
10:53 AM 32.0 °F 22.5 °F 19.0 °F 59% 30.14 in 10.0 mi SE 12.7 mph - N/A   Mostly Cloudy
11:53 AM 32.0 °F 23.6 °F 19.0 °F 59% 30.12 in 10.0 mi East 10.4 mph - N/A   Mostly Cloudy
12:21 PM 34.0 °F 27.2 °F 19.9 °F 56% 30.05 in 10.0 mi South 8.1 mph - N/A   Scattered Clouds
12:53 PM 34.0 °F - 19.0 °F 54% 30.09 in 10.0 mi Calm Calm - N/A   Clear
1:53 PM 37.0 °F 31.0 °F 19.9 °F 50% 30.07 in 10.0 mi SE 8.1 mph - N/A   Clear
2:53 PM 37.9 °F 33.5 °F 21.0 °F 51% 30.06 in 10.0 mi ESE 5.8 mph - N/A   Clear
3:53 PM 37.0 °F 31.0 °F 19.9 °F 50% 30.05 in 10.0 mi SSE 8.1 mph - N/A   Clear
4:53 PM 34.0 °F 29.8 °F 19.9 °F 56% 30.05 in 10.0 mi SE 4.6 mph - N/A   Clear
5:53 PM 30.9 °F - 19.9 °F 64% 30.06 in 10.0 mi Calm Calm - N/A   Clear
6:53 PM 28.9 °F - 19.9 °F 69% 30.07 in 10.0 mi Calm Calm - N/A   Clear
7:53 PM 28.0 °F - 19.0 °F 69% 30.07 in 10.0 mi Calm Calm - N/A   Clear
8:53 PM 28.0 °F 24.2 °F 18.0 °F 66% 30.06 in 10.0 mi SE 3.5 mph - N/A   Clear
9:53 PM 28.0 °F - 18.0 °F 66% 30.04 in 10.0 mi Calm Calm - N/A   Clear
10:53 PM 27.0 °F - 18.0 °F 69% 30.02 in 10.0 mi Calm Calm - N/A   Clear
11:53 PM 24.1 °F 19.7 °F 17.1 °F 75% 30.04 in 10.0 mi SE 3.5 mph - N/A   Clear